Location: *
(48.8489°N, 2.3218°E)
Time: 17:53:50
(UTC+00:00)

Cosmos 1833 Rocket - Pass Details

Date: 23 August 2019
Orbit: 834 x 838 km, 71.0° (Epoch: 16 October)

Event Time Altitude Azimuth Distance (km) Brightness Sun altitude
Rises 21:34:48 0° 218° (SW) 3,378 5.7 -22.5°
Reaches altitude 10° 21:37:16 10° 222° (SW) 2,447 5.0 -22.8°
Maximum altitude 21:42:48 60° 302° (WNW) 956 3.2 -23.3°
Drops below altitude 10° 21:48:24 10° 23° (NNE) 2,459 5.5 -23.8°
Sets 21:50:53 0° 27° (NNE) 3,397 6.2 -24.1°
